map of CMN home
CMN - Airport
Location
City:  Casablanca, Meknčs-Tafilalet, Morocco
Name:Mohammed V International Airport
ICAO:GMMN
IATA:CMN

Details
Type:Airport (Aerodrome, Airfield)
Use:Public/Civil, International (customs port of entry)
Latitude:33°21'51"N (33.364167)
Longitude:7°34'54"W (-7.581666)
Elevation:656 ft (200 m)
Variation:1.72°W (WMM2015 magnetic declination)
0.11° annual change
Runways:2
Longest:12205 × 148 ft (3720 × 45 m), paved

Time
Time Zone:UTC+0 (DST+1)
Local Time:

Weather
METAR:GMMN 190630Z 25010KT 5000 -RA SCT006 BKN066 15/15 Q1010 NOSIG
TAF:GMMN 190500Z 1906/2012 22005KT 9999 SCT016
BECMG 1910/1914 30013KT
BECMG 1920/1924 18006KT

Related Locations
Nearby:
Farthest:KAT: 12304 mi / 19801 km
Kaitaia, NTL, NZ

Find:

   beyond  
but within

Other Information
Maps:
NOTAMs:
Links:
Sources:

  
  • flag of Morocco
  

Sectional Chart

Flight Planning
at skyvector.com

Satellite Image

Google Maps Satellite view

 

Copyright © 2004-2018 Karl L. Swartz. All rights reserved.
The Great Circle Mapper name and logo are trademarks of the Great Circle Mapper.
All other trademarks mentioned herein belong to their respective owners.
Please see credits for attibutions and further copyright information.

  Follow gcmap on Facebook Follow gcmap on Twitter Follow gcmap on Google+ GCmap on LinkedIn

hCard Microformat

Geo Microformat